Regional Weather Roundup
Issued by NWS

Home | Current Version | Previous Version | Text Only | Print | Product List | Glossary On
Versions: 1 2 3 4 5 6 7 8 9 10 11 12 13 14 15 16 17 18 19 20 21 22 23 24 25 26 27 28 29 30 31 32 33 34 35 36 37 38 39 40 41 42 43 44 45 46 47 48 49 50
000
ASUS43 KLSX 280459
RWRMO

WEATHER SUMMARY FOR MISSOURI
NATIONAL WEATHER SERVICE SPRINGFIELD MO
1100 PM CST SAT DEC 27 2014

NOTE: "FAIR" INDICATES FEW OR NO CLOUDS BELOW 12,000 FEET WITH NO
       SIGNIFICANT WEATHER AND/OR OBSTRUCTIONS TO VISIBILITY.
       CURRENT SKY AND/OR WEATHER CONDITIONS ARE NOT AVAILABLE FOR
       CHILLICOTHE AND FARMINGTON.

MOZ001>031-035>038-043-044-053-054-280600-
...NORTHERN AND WESTERN MISSOURI...

CITY           SKY/WX    TMP DP  RH WIND       PRES   REMARKS
KANSAS CTY INT CLEAR     22  18  85 SW3       30.26S
KANSAS C DTWN  CLEAR     27  19  72 W3        30.29S
LEE`S SUMMIT   CLEAR     25  18  74 CALM      30.27F
ST JOSEPH      CLEAR     20  17  88 W5        30.28S WCI  13
CHILLICOTHE      N/A     24  19  81 CALM      30.28S
KIRKSVILLE     CLOUDY    28  23  81 NW7       30.24S WCI  21

$$
MOZ066>068-077>081-088>096-101>105-280600-
...SOUTHWEST MISSOURI...

CITY           SKY/WX    TMP DP  RH WIND       PRES   REMARKS
SPRINGFIELD    PTCLDY    28  24  85 NW7       30.25R WCI  21
JOPLIN         CLEAR     23  21  92 W3        30.30R

$$
MOZ032>034-039>042-045>050-055>058-069>072-280600-
...CENTRAL MISSOURI...

CITY           SKY/WX    TMP DP  RH WIND       PRES   REMARKS
COLUMBIA       CLOUDY    30  23  75 W13       30.24R WCI  20
JEFFERSON CITY CLOUDY    32  24  72 NW7       30.26R WCI  26
ROLLA          CLOUDY    30  25  81 NW10      30.21R WCI  21
SEDALIA        CLEAR     28  22  78 NW7       30.27R WCI  21
OSAGE BEACH    CLOUDY    30  25  80 NW3       30.25R

$$
MOZ051-052-059>065-280600-
...EAST CENTRAL MISSOURI...

CITY           SKY/WX    TMP DP  RH WIND       PRES   REMARKS
ST LOUIS INTL  CLOUDY    35  27  72 NW8G18    30.21S WCI  29
SPIRIT OF STL  CLOUDY    33  27  78 NW9       30.22S WCI  25
ST CHARLES     CLOUDY    34  27  75 N8        30.22R WCI  27

$$
MOZ072>076-082>087-097>100-106>115-280600-
...SOUTH CENTRAL AND SOUTHEAST MISSOURI...

CITY           SKY/WX    TMP DP  RH WIND       PRES   REMARKS
CAPE GIRARDEAU CLOUDY    39  37  92 N12       30.19R
FARMINGTON     CLOUDY    34  30  86 SE6       30.21R WCI  29
POPLAR BLUFF   CLOUDY    40  35  83 N12       30.17S
WEST PLAINS    CLOUDY    33  30  88 N8        30.20F WCI  26

$$



USA.gov is the U.S. government's official web portal to all federal, state and local government web resources and services.